Location: Mount Kobau Star Party
(49.1167°N, 119.7333°W)
Time: 13:29:33
(UTC-08:00)

N. Korean satellite - Visible Passes

Search period start: 15 December 2017 00:00
Search period end: 25 December 2017 00:00
Orbit: 461 x 513 km, 97.2° (Epoch: 14 December)

Date Brightness Start Highest point End Pass type
(mag) Time Alt. Az. Time Alt. Az. Time Alt. Az.
15 Dec 10.3 05:33:16 10° ENE 05:33:51 10° E 05:34:28 10° E visible
15 Dec 6.6 07:04:09 10° N 07:07:53 72° WNW 07:11:31 10° SSW visible
15 Dec 6.5 17:43:50 10° SSE 17:47:33 79° ENE 17:51:20 10° N visible
16 Dec 7.3 06:40:38 10° NNE 06:44:18 59° E 06:47:54 10° S visible
16 Dec 7.0 17:20:31 10° SE 17:24:04 42° ENE 17:27:39 10° N visible
16 Dec 9.6 18:55:13 10° SW 18:57:47 17° W 19:00:21 10° NW visible
17 Dec 8.6 06:17:18 10° NNE 06:20:39 31° E 06:23:56 10° SSE visible
17 Dec 7.7 16:57:33 10° ESE 17:00:38 25° ENE 17:03:44 10° N visible
17 Dec 8.6 18:30:43 10° SSW 18:34:02 30° W 18:37:24 10° NNW visible
18 Dec 9.7 05:54:19 10° NE 05:56:54 18° E 05:59:27 10° SE visible
18 Dec 8.3 16:35:04 10° E 16:37:16 15° ENE 16:39:29 10° NNE visible
18 Dec 7.3 18:06:42 10° S 18:10:22 56° W 18:14:06 10° NNW visible
19 Dec 6.5 07:03:24 10° N 07:07:06 73° WNW 07:10:42 10° SSW visible
19 Dec 6.5 17:43:03 10° SSE 17:46:47 78° ENE 17:50:33 10° N visible
20 Dec 7.3 06:39:51 10° NNE 06:43:31 58° E 06:47:04 10° S visible
20 Dec 7.0 17:19:43 10° SE 17:23:16 42° ENE 17:26:51 10° N visible
20 Dec 9.6 18:54:24 10° SW 18:56:59 18° W 18:59:35 10° NW visible
21 Dec 8.7 06:16:32 10° NNE 06:19:50 31° E 06:23:04 10° SSE visible
21 Dec 7.7 16:56:45 10° ESE 16:59:50 24° ENE 17:02:55 10° NNE visible
21 Dec 8.6 18:29:53 10° SSW 18:33:13 30° W 18:36:36 10° NNW visible
22 Dec 9.7 05:53:33 10° NE 05:56:04 17° E 05:58:33 10° SE visible
22 Dec 7.3 18:05:53 10° S 18:09:34 56° W 18:13:17 10° NNW visible
23 Dec 6.5 07:02:35 10° N 07:06:16 74° WNW 07:09:50 10° SSW visible
23 Dec 6.5 17:42:14 10° SSE 17:45:58 77° ENE 17:49:44 10° N visible
23 Dec 10.2 19:19:43 10° W 19:19:58 10° W 19:20:14 10° W visible
24 Dec 7.3 06:39:03 10° NNE 06:42:40 57° E 06:46:11 10° S visible
24 Dec 7.0 17:18:54 10° SE 17:22:27 41° ENE 17:26:00 10° N visible
24 Dec 9.6 18:53:32 10° SW 18:56:08 18° W 18:58:46 10° NW visible
